Temperature
20 19 19 19 18 18 20 21 23 25 25 26 25 25 23 22 22 22 21 22 21 21 20 20 20 20 20 20 20 20 20 20 20 20 20 20 20 20 19 19 19 19 19 19 19 19 19 19 19
20 19 19 19 18 20 22 23 24 26 26 26 26 24 22 21 21 21 22 21 21 21 20 20 20 20 20 20 20 20 20 20 20 20 20 20 20 19 19 19 19 19 19 19 19 19 19 19 19
20 19 19 17 18 20 23 25 25 26 27 26 25 24 22 21 22 22 22 21 21 21 20 20 20 20 20 20 20 20 20 20 20 20 20 20 19 19 19 19 19 19 19 19 19 19 19 19 19
20 19 19 17 20 21 22 24 25 26 26 26 25 23 21 21 22 23 22 22 21 20 20 20 20 20 20 20 20 20 20 20 19 19 19 19 19 19 19 19 19 19 19 19 19 19 19 19 19
19 19 18 18 19 21 23 25 26 25 25 24 23 21 20 21 22 22 22 22 21 21 20 20 20 20 20 20 20 20 19 19 19 19 19 19 19 19 19 19 19 19 19 19 19 19 19 19 19
19 18 18 19 21 23 24 25 25 24 24 24 23 20 20 21 22 22 22 22 21 21 20 20 20 20 20 20 20 19 19 19 19 19 19 19 19 19 19 18 18 18 18 18 18 18 19 19 19
19 17 19 20 21 23 25 25 24 23 23 23 23 20 20 20 21 22 21 21 21 21 20 20 20 20 20 20 19 19 19 19 19 19 19 19 19 18 18 18 18 18 18 18 18 18 19 19 19
20 17 20 20 22 23 24 24 24 23 23 23 23 20 20 20 21 21 21 21 20 20 20 20 20 20 20 20 20 19 19 19 19 19 18 18 18 18 18 18 18 18 18 18 18 18 18 18 18
21 18 18 20 22 23 24 23 23 23 22 22 21 21 21 21 21 21 20 20 20 20 20 20 20 20 20 20 19 19 19 19 19 19 19 18 18 18 18 18 18 18 18 18 18 18 18 18 18
21 18 19 21 22 23 23 23 22 22 21 21 20 21 21 21 21 21 21 20 20 20 20 20 20 20 20 19 19 19 19 19 19 19 19 18 18 18 18 18 18 18 18 18 18 18 18 18 18
20 19 21 22 24 24 23 22 21 21 19 19 19 19 20 20 20 20 20 20 20 20 20 20 19 19 19 19 19 19 19 18 18 18 18 18 18 18 18 18 18 17 17 17 17 17 17 17 17
20 21 22 23 24 23 22 21 19 19 18 19 19 19 19 19 19 19 20 20 20 20 19 19 19 19 19 19 19 19 18 18 18 18 18 18 17 18 17 17 17 17 17 17 17 17 17 17 17
21 21 23 22 22 21 20 19 19 18 18 19 19 19 19 19 19 19 19 20 19 19 19 19 19 19 19 19 18 18 18 18 18 17 17 17 17 17 17 17 17 17 17 17 17 17 17 17 17
22 22 22 22 21 20 19 19 18 17 18 19 19 18 18 18 18 19 19 19 19 19 19 19 19 18 18 18 18 18 17 17 17 17 17 17 17 17 16 16 16 16 17 17 17 17 17 17 16
23 22 21 21 21 20 20 18 18 17 18 18 18 18 18 18 18 18 18 18 19 19 19 18 18 18 18 18 17 17 17 17 17 17 17 16 16 16 16 16 16 16 16 16 16 16 16 16 16
22 21 21 21 20 20 20 18 18 17 17 17 17 17 17 17 17 18 18 18 18 18 18 18 18 18 17 17 17 17 17 17 17 16 16 16 15 15 15 15 15 15 15 15 15 15 15 16 15
20 20 21 21 20 20 19 18 18 17 17 17 17 17 17 17 17 18 18 18 18 18 18 18 18 18 17 17 17 17 17 16 16 16 16 15 15 15 15 15 14 14 15 15 15 15 15 15 15
21 21 20 20 20 19 18 17 17 17 17 17 17 17 17 17 17 18 18 18 18 18 18 18 18 17 17 17 17 16 16 16 16 15 15 15 15 14 14 14 14 14 14 14 14 14 14 14 14
22 21 20 20 20 19 18 17 17 17 17 17 17 17 17 17 18 18 18 18 18 18 18 18 18 17 17 17 16 16 16 15 15 15 15 14 14 14 14 14 13 13 13 13 13 13 13 13 13
21 21 20 20 20 19 17 17 17 17 17 17 17 17 17 17 17 18 18 18 18 18 18 18 17 17 17 16 16 16 15 15 14 14 14 14 13 13 13 13 13 13 13 13 13 13 13 13 13
21 21 20 19 19 18 18 18 17 17 17 17 17 17 18 18 18 18 18 18 18 18 18 18 17 17 16 16 15 15 15 14 14 13 13 13 13 12 12 12 12 12 12 12 12 12 12 12 12
21 21 21 20 18 17 17 17 17 16 16 17 17 18 18 18 19 19 19 18 18 18 18 17 17 16 16 15 15 14 14 14 13 13 12 12 12 11 11 11 11 11 11 12 12 12 12 12 12
21 20 19 18 17 17 16 17 16 16 16 17 17 18 19 19 19 19 19 19 18 18 17 17 17 16 16 15 15 14 14 13 13 12 12 11 11 11 11 11 11 11 11 11 11 11 11 11 11
20 19 18 16 16 17 17 16 17 16 16 17 18 19 19 19 19 19 19 19 18 18 17 17 17 16 15 15 14 14 13 12 12 11 11 11 11 10 10 10 10 10 10 10 11 11 11 11 11
20 18 17 18 16 17 16 16 16 17 17 17 18 19 20 20 19 19 19 19 18 18 17 17 16 16 15 14 14 13 12 12 11 11 10 10 10 10 10 10 10 9 9 10 10 10 10 10 10
20 19 18 19 18 17 16 16 16 18 18 18 19 19 20 20 20 20 19 19 18 18 17 17 16 15 14 14 13 12 12 11 11 10 10 10 10 10 9 9 9 9 9 9 9 9 9 10 10
20 18 18 16 17 17 17 16 17 18 18 18 18 19 19 20 20 20 19 19 18 18 17 16 15 15 14 13 12 12 11 11 11 10 10 10 9 9 9 9 9 9 9 9 9 9 9 9 9
20 17 15 16 17 18 18 17 17 19 18 18 17 18 20 20 20 20 19 18 18 17 16 15 15 14 13 12 12 11 11 11 10 10 10 9 9 9 9 9 9 9 9 9 9 8 8 8 9
21 19 15 14 16 17 18 17 17 17 18 17 18 19 20 20 20 19 19 18 17 16 16 15 14 13 13 12 11 11 11 10 10 10 9 9 9 9 9 9 9 9 9 9 8 8 8 8 8
22 20 17 18 17 15 16 17 18 17 17 18 19 20 20 20 19 19 18 18 17 16 15 14 13 13 12 12 11 11 10 10 10 10 9 9 9 9 9 9 9 9 9 8 8 8 8 8 8
Wind_Speed
12 8 2 2 3 2 5 5 4 4 3 3 5 8 8 5 3 3 3 10 14 13 14 17 18 18 18 19 19 18 18 17 17 17 17 17 16 15 15 14 13 12 11 10 10 9 9 9 9
9 4 3 3 3 3 5 4 4 3 1 3 5 6 7 5 4 6 6 10 15 13 13 15 18 17 17 18 18 17 17 16 16 16 15 15 14 14 13 13 12 12 11 10 9 9 9 9 9
6 2 3 3 1 2 6 5 5 4 2 2 4 6 5 4 5 5 7 14 14 11 12 16 18 17 16 16 16 16 15 15 14 14 13 13 13 12 12 11 11 10 10 10 9 9 9 9 9
4 3 4 3 3 5 6 9 8 4 3 6 4 6 5 5 2 7 14 16 15 10 12 15 17 16 16 15 15 15 14 13 13 12 12 12 11 11 11 10 10 9 9 9 9 8 8 8 9
3 4 4 2 5 6 6 8 5 2 3 5 5 5 5 6 9 14 15 16 15 11 10 14 16 15 15 14 14 14 13 12 12 11 11 11 10 10 10 10 9 9 9 9 10 9 9 9 9
4 4 3 3 6 7 6 7 5 7 5 4 5 5 4 4 9 12 13 13 12 11 9 13 15 15 14 13 13 13 12 12 11 11 11 10 10 10 10 9 9 9 9 10 10 10 10 9 9
4 4 1 3 5 6 6 8 6 5 5 4 3 5 3 4 6 9 10 11 10 8 7 8 11 12 13 12 12 11 11 11 10 10 10 10 10 10 10 10 10 10 11 10 11 11 11 11 10
4 4 1 3 4 4 6 6 5 6 3 3 3 6 5 6 10 10 10 9 9 7 6 5 7 8 8 9 10 10 10 9 9 9 9 9 10 10 10 10 11 11 11 12 12 12 13 12 12
4 4 2 4 4 4 4 5 5 4 4 5 5 3 7 15 14 12 10 8 7 7 4 4 5 5 6 5 7 8 8 9 9 8 8 9 8 8 8 10 11 12 12 13 14 14 14 14 13
4 3 7 6 5 3 3 3 3 4 6 6 7 10 14 15 12 12 11 9 9 8 6 3 3 3 4 4 4 4 4 5 6 5 6 5 5 6 7 8 11 12 13 13 14 15 15 14 12
7 7 6 6 6 4 2 1 3 4 6 5 5 9 12 11 9 8 7 7 6 6 6 5 3 3 3 1 1 2 2 2 4 5 5 5 5 5 6 6 7 8 10 10 11 12 13 12 12
5 7 6 5 3 2 2 4 5 7 5 6 8 8 9 9 7 7 7 7 7 7 5 4 4 3 2 1 0 1 1 1 2 4 5 4 3 3 3 3 5 5 5 7 7 7 10 11 13
5 5 3 3 3 5 8 8 7 7 8 10 12 11 10 9 7 6 6 6 7 7 5 4 3 3 2 1 1 1 1 1 2 2 2 3 2 1 2 2 3 4 4 5 5 5 6 6 9
4 1 2 4 4 4 9 6 6 5 7 11 11 10 9 8 7 6 6 6 7 6 6 5 4 3 3 2 2 1 1 1 2 2 2 1 1 1 1 2 2 3 3 4 4 5 5 5 5
1 1 4 4 3 3 7 7 4 4 7 10 10 9 9 7 6 7 5 6 6 6 5 5 4 4 4 3 2 2 2 2 2 2 2 2 1 0 0 1 1 2 3 4 3 4 3 4 5
3 3 2 3 2 2 6 4 2 2 6 8 8 8 8 6 5 5 5 5 5 5 5 4 4 5 5 4 3 3 3 3 2 2 2 2 2 1 0 0 2 3 3 2 2 2 3 4 5
4 1 2 3 2 3 4 5 5 4 6 6 6 7 7 6 4 4 4 5 5 6 6 5 5 5 4 4 3 3 3 3 3 3 2 2 2 2 0 1 2 3 2 2 2 2 2 3 5
4 2 2 2 1 3 4 4 6 6 7 7 6 6 6 7 6 5 5 4 4 4 5 5 4 4 4 3 3 2 3 2 3 2 3 3 3 3 2 1 2 3 2 2 2 3 2 3 4
3 3 2 1 1 3 3 4 5 4 4 5 6 6 6 6 5 5 6 5 5 4 5 5 4 3 3 2 2 1 0 1 2 2 4 4 4 5 3 2 3 2 2 3 3 2 3 3 2
3 3 2 1 2 3 2 1 1 2 3 4 6 6 7 6 5 6 7 6 6 6 6 5 4 3 2 1 1 1 0 1 2 3 4 5 6 6 4 3 3 3 3 4 3 1 1 2 2
2 3 4 4 3 4 1 1 2 1 1 2 5 6 6 8 9 8 8 8 7 7 7 6 6 4 3 2 2 2 2 2 3 3 3 5 7 7 5 5 3 3 3 3 3 2 2 2 2
2 2 5 5 5 2 3 3 3 2 2 4 6 7 8 8 8 8 9 9 9 8 6 5 5 4 4 3 2 2 2 2 3 3 3 5 6 6 6 5 4 3 3 4 4 3 3 2 3
3 5 6 5 5 3 5 1 6 1 3 6 7 7 8 9 9 9 9 9 7 6 5 5 5 4 3 3 3 3 3 3 3 3 5 5 5 6 6 6 4 3 3 3 4 3 3 3 3
7 7 7 6 5 3 3 1 6 4 6 5 5 7 8 7 7 7 7 6 5 5 5 5 5 4 3 3 3 4 5 5 5 5 5 5 4 5 5 5 4 4 3 4 4 4 4 4 4
5 6 5 5 5 4 2 2 8 7 7 7 7 8 7 6 6 6 6 6 6 5 5 4 4 4 3 3 3 4 5 5 6 7 6 6 5 4 6 5 4 4 4 5 4 4 4 4 5
4 7 6 4 4 4 2 4 8 7 6 6 7 6 5 5 5 6 7 6 6 6 5 4 4 4 3 4 4 4 5 4 5 7 6 6 6 6 7 7 6 6 6 6 5 4 5 4 5
6 3 6 6 3 1 5 7 8 4 5 4 5 5 6 5 5 5 5 5 5 5 4 4 4 4 4 5 5 6 6 6 7 7 6 6 7 7 7 7 7 7 7 6 5 5 6 5 6
5 9 6 6 4 1 5 5 5 7 8 6 5 6 6 4 5 5 4 4 3 3 2 2 3 4 5 5 5 5 6 6 6 6 7 7 8 7 8 8 8 8 7 7 6 6 7 7 7
3 5 6 5 5 6 3 7 7 9 9 9 9 8 7 7 7 5 4 3 2 1 2 3 4 4 5 6 5 6 6 6 6 6 8 8 8 8 8 9 8 8 9 8 7 8 8 8 8
2 5 7 5 4 5 4 8 6 8 8 8 8 7 6 7 5 3 3 2 2 3 3 4 5 6 6 6 5 6 6 6 7 8 8 8 8 8 9 9 9 10 9 8 8 9 9 9 10
Wind_Direction
137 127 96 69 49 22 275 262 251 299 332 17 66 83 90 81 96 131 108 130 133 140 149 150 147 143 138 134 131 131 131 132 133 135 138 141 144 147 151 153 156 156 155 152 147 142 139 137 134
134 123 66 63 61 345 294 268 289 308 177 126 71 78 75 69 78 105 122 135 137 138 142 148 148 145 142 139 136 136 137 138 140 141 144 147 150 153 156 158 160 161 161 158 156 151 147 146 144
141 107 88 72 77 248 285 293 306 322 2 39 58 55 69 84 120 128 140 137 131 132 138 151 150 149 147 145 142 142 143 144 146 148 151 154 157 161 163 165 166 167 167 166 165 162 158 156 155
126 64 65 64 276 253 256 281 293 297 19 45 78 60 57 30 113 133 135 137 133 130 139 152 151 152 152 151 150 149 149 152 155 158 161 164 167 171 174 175 177 180 180 177 176 174 171 169 168
75 84 55 350 272 265 270 292 309 54 56 44 69 77 42 22 96 125 135 140 138 133 138 150 152 154 156 158 158 157 158 162 166 169 173 177 180 183 186 190 193 196 195 192 189 188 186 184 184
68 72 69 309 289 288 310 341 27 60 63 53 66 79 51 89 113 130 136 137 138 135 133 147 153 157 160 164 166 168 170 173 178 182 185 189 193 196 199 203 209 211 212 209 204 201 199 199 199
112 106 170 264 287 308 340 357 25 40 63 35 69 92 89 117 119 122 125 129 129 125 123 133 150 159 164 168 173 177 179 183 188 193 197 200 204 208 212 217 221 222 223 223 218 215 213 211 211
136 107 328 276 275 297 330 9 17 26 37 42 68 122 158 154 123 113 114 119 123 114 111 115 130 143 155 168 179 183 187 193 199 205 211 213 217 221 225 229 232 235 234 233 230 228 226 223 220
117 76 257 244 241 275 335 15 359 17 54 43 41 86 135 130 124 119 119 123 134 138 116 108 115 126 139 160 187 193 198 203 208 214 222 228 234 240 245 245 241 244 244 243 241 239 236 233 230
118 166 232 229 220 243 325 8 358 39 45 43 50 72 114 128 133 135 140 148 155 157 156 134 129 130 141 172 190 200 211 216 219 224 232 236 239 246 254 261 258 258 257 255 252 248 243 240 236
172 204 242 257 243 244 258 38 33 83 50 41 87 115 125 131 132 134 140 147 150 150 161 151 148 151 161 180 166 197 218 235 235 232 233 235 235 243 253 261 270 276 276 271 267 260 246 236 231
201 246 243 273 276 233 173 114 70 60 73 81 100 108 114 119 120 128 139 139 129 132 140 134 143 143 158 170 141 191 211 254 259 251 239 231 238 246 254 255 260 270 280 281 276 267 256 242 237
226 269 289 304 18 89 93 89 96 77 82 88 91 88 92 95 91 84 96 110 116 122 115 107 118 128 124 111 53 74 1 304 297 299 280 240 239 265 269 276 280 278 282 283 281 274 270 259 248
234 209 354 14 63 80 96 81 84 94 99 94 92 90 89 92 94 94 95 103 111 115 111 108 103 95 94 96 83 72 62 24 27 13 11 0 237 243 263 279 280 287 291 287 285 281 276 270 262
291 61 5 18 67 126 100 62 67 116 112 100 100 100 96 91 93 99 104 107 110 109 106 109 111 97 100 98 85 88 77 62 45 7 23 40 60 33 276 295 308 310 310 306 299 289 279 274 266
29 46 4 333 52 115 105 132 149 138 122 112 116 116 111 101 100 105 110 111 114 115 112 108 110 102 98 96 85 81 73 60 35 20 28 30 32 63 90 309 299 312 323 315 301 294 291 276 270
24 24 269 316 13 104 116 163 177 156 141 138 139 133 129 125 120 127 134 138 137 136 134 130 127 124 113 103 92 86 77 52 28 20 16 8 16 22 35 291 300 318 322 315 307 303 281 282 280
248 245 264 271 326 93 121 164 171 176 170 166 158 155 152 159 170 171 163 160 152 148 150 149 147 138 121 101 82 63 51 29 24 15 1 0 5 7 6 328 328 330 320 314 311 298 285 271 279
198 194 233 234 92 93 144 162 186 180 178 177 173 177 180 183 187 182 180 178 170 178 180 176 169 170 145 118 114 101 14 337 344 346 351 355 357 355 346 328 316 309 288 279 286 290 301 295 296
198 193 184 83 59 87 116 187 197 194 217 204 195 194 197 192 188 194 195 197 198 199 202 201 197 188 175 145 136 141 145 289 290 316 334 347 348 342 334 311 298 288 279 285 283 259 292 295 310
235 199 183 156 95 59 61 331 232 256 263 218 212 208 211 203 201 204 204 208 210 212 209 207 205 200 194 166 116 75 38 357 336 327 325 329 333 331 326 310 289 279 252 259 262 236 231 267 290
258 226 147 121 105 18 31 312 289 249 264 228 220 214 217 218 211 210 211 213 216 219 211 204 199 200 201 179 175 181 197 256 263 277 292 305 314 317 317 312 300 281 264 260 261 237 221 227 267
142 78 86 88 98 50 26 25 296 330 253 239 228 225 224 222 218 217 216 217 219 214 202 198 194 204 205 195 193 198 230 244 272 288 293 298 304 305 304 304 301 288 271 263 259 253 230 219 232
121 76 61 54 63 16 338 24 291 262 236 246 235 229 228 226 222 221 217 207 210 197 188 182 185 208 214 215 217 217 242 260 278 284 286 289 294 295 293 292 288 283 276 270 263 254 246 234 235
86 87 35 4 10 274 280 259 258 259 239 231 241 243 240 234 222 216 205 196 193 186 184 176 182 219 235 239 246 243 246 250 254 265 268 275 281 282 285 287 278 275 270 270 265 259 255 242 238
161 133 151 205 235 278 309 256 258 258 259 247 240 242 246 234 218 209 201 192 189 186 182 181 196 226 244 249 260 262 253 247 253 257 257 262 264 269 276 278 272 268 267 270 262 259 260 251 246
138 146 145 124 115 6 293 289 300 262 263 245 232 226 226 220 198 190 186 182 181 180 182 188 200 232 253 257 265 271 267 259 261 266 264 264 265 272 273 273 274 273 269 266 262 258 262 261 254
129 138 103 113 135 270 300 283 254 255 245 235 219 214 216 193 179 176 173 171 171 179 187 198 216 239 257 264 265 269 270 268 267 272 274 272 272 273 278 279 276 275 272 267 258 258 260 260 259
111 97 104 111 145 154 244 270 227 224 225 219 220 215 204 194 188 183 179 171 171 183 218 244 254 260 269 270 271 275 276 276 277 274 273 274 276 278 278 278 279 278 276 270 261 258 257 255 258
184 161 149 150 197 174 184 264 258 232 235 218 219 213 200 190 184 179 178 175 204 242 258 262 266 265 266 270 274 275 277 283 284 281 280 279 278 279 277 277 277 277 276 270 264 266 264 255 256
Height
1520 1521 1523 1525 1527 1531 1528 1515 1505 1499 1496 1494 1493 1493 1496 1501 1505 1512 1509 1509 1514 1517 1521 1525 1528 1531 1534 1536 1537 1539 1540 1542 1543 1544 1545 1546 1547 1548 1549 1550 1551 1552 1553 1554 1555 1555 1556 1556 1557
1520 1522 1525 1526 1529 1535 1523 1507 1502 1497 1496 1496 1495 1496 1498 1502 1504 1506 1507 1511 1515 1519 1523 1526 1530 1533 1535 1537 1539 1540 1542 1543 1544 1545 1546 1547 1548 1549 1550 1551 1552 1553 1554 1555 1556 1556 1557 1557 1558
1521 1523 1526 1527 1531 1532 1520 1504 1499 1496 1496 1496 1498 1499 1501 1505 1506 1508 1510 1512 1516 1520 1524 1528 1531 1534 1536 1539 1540 1542 1543 1544 1545 1546 1547 1548 1549 1550 1551 1552 1553 1554 1555 1556 1557 1557 1558 1558 1559
1522 1525 1526 1530 1530 1521 1511 1501 1497 1495 1496 1497 1499 1502 1505 1508 1509 1510 1511 1514 1517 1521 1525 1529 1532 1535 1537 1540 1541 1543 1544 1545 1546 1547 1548 1549 1550 1551 1552 1553 1554 1555 1556 1556 1557 1558 1559 1559 1560
1522 1524 1529 1533 1528 1515 1505 1499 1495 1495 1498 1500 1501 1505 1508 1510 1510 1512 1513 1515 1518 1522 1526 1530 1533 1536 1539 1541 1542 1544 1545 1546 1547 1548 1549 1549 1550 1551 1552 1553 1554 1555 1556 1557 1557 1558 1559 1560 1560
1523 1525 1534 1535 1525 1512 1504 1500 1498 1498 1500 1503 1504 1507 1512 1512 1512 1514 1515 1517 1521 1524 1528 1531 1534 1537 1539 1542 1543 1545 1546 1546 1547 1548 1549 1550 1550 1551 1552 1553 1554 1555 1556 1557 1557 1558 1559 1560 1560
1524 1528 1532 1529 1524 1514 1506 1502 1502 1502 1503 1506 1507 1509 1512 1513 1515 1516 1517 1520 1523 1526 1529 1532 1535 1538 1540 1542 1544 1545 1546 1547 1547 1548 1549 1549 1550 1551 1551 1552 1553 1554 1555 1556 1557 1557 1558 1559 1560
1523 1527 1530 1529 1523 1515 1507 1505 1506 1506 1506 1508 1508 1510 1513 1515 1516 1518 1520 1522 1525 1528 1531 1533 1536 1538 1540 1542 1544 1545 1546 1547 1547 1548 1549 1549 1550 1550 1551 1551 1552 1553 1554 1554 1555 1556 1557 1558 1559
1522 1530 1534 1525 1519 1513 1507 1507 1508 1508 1507 1508 1509 1510 1512 1515 1517 1519 1521 1524 1527 1529 1532 1534 1536 1538 1540 1542 1544 1545 1545 1546 1547 1547 1548 1548 1548 1549 1549 1550 1551 1551 1552 1552 1553 1554 1555 1556 1557
1521 1531 1525 1515 1511 1509 1508 1508 1509 1509 1510 1511 1512 1513 1514 1516 1519 1521 1522 1524 1527 1530 1532 1535 1537 1539 1540 1542 1543 1544 1545 1545 1546 1546 1546 1547 1547 1547 1548 1548 1548 1549 1550 1550 1551 1552 1552 1553 1554
1518 1520 1513 1510 1508 1508 1508 1509 1510 1511 1514 1515 1515 1516 1517 1519 1521 1523 1525 1527 1529 1531 1533 1535 1537 1539 1540 1542 1543 1543 1544 1544 1545 1544 1545 1545 1545 1545 1545 1545 1546 1546 1547 1547 1547 1548 1549 1549 1550
1516 1512 1510 1508 1507 1506 1507 1508 1511 1513 1517 1517 1517 1518 1519 1521 1523 1524 1526 1528 1530 1532 1534 1536 1537 1539 1540 1541 1542 1542 1543 1543 1543 1543 1543 1543 1543 1543 1543 1543 1543 1543 1543 1544 1544 1544 1545 1545 1546
1513 1511 1508 1507 1505 1505 1506 1509 1512 1517 1517 1518 1519 1520 1521 1522 1524 1526 1528 1530 1531 1533 1534 1536 1537 1538 1539 1540 1540 1541 1541 1541 1541 1541 1541 1540 1541 1541 1540 1540 1540 1540 1539 1539 1539 1539 1540 1540 1541
1510 1509 1508 1507 1505 1507 1508 1512 1513 1518 1518 1518 1520 1521 1522 1523 1525 1526 1528 1529 1531 1532 1534 1535 1536 1537 1538 1538 1539 1539 1540 1540 1539 1539 1539 1538 1538 1538 1538 1537 1537 1536 1535 1535 1534 1534 1535 1535 1535
1509 1510 1509 1508 1508 1510 1510 1516 1517 1519 1519 1519 1520 1522 1523 1524 1525 1526 1528 1530 1531 1532 1533 1534 1535 1536 1537 1537 1538 1538 1538 1538 1538 1537 1536 1536 1535 1535 1535 1534 1533 1532 1531 1531 1530 1530 1529 1529 1529
1509 1513 1517 1511 1509 1510 1514 1524 1520 1520 1520 1520 1521 1522 1523 1525 1526 1527 1528 1530 1531 1532 1533 1534 1535 1535 1536 1537 1537 1537 1537 1537 1536 1536 1535 1534 1533 1532 1532 1531 1530 1529 1528 1527 1526 1525 1524 1524 1523
1517 1521 1519 1514 1510 1510 1514 1520 1519 1519 1520 1520 1521 1521 1523 1525 1526 1528 1529 1530 1531 1532 1533 1534 1534 1535 1536 1536 1536 1536 1536 1536 1535 1534 1533 1532 1531 1530 1529 1528 1527 1526 1525 1524 1523 1521 1520 1519 1518
1521 1520 1519 1517 1512 1512 1516 1518 1518 1518 1519 1519 1520 1522 1522 1524 1526 1527 1529 1530 1531 1532 1533 1534 1535 1535 1535 1535 1536 1536 1535 1534 1533 1532 1531 1530 1528 1527 1526 1525 1524 1523 1522 1521 1519 1518 1517 1515 1514
1511 1515 1518 1515 1511 1514 1517 1519 1518 1519 1519 1520 1520 1521 1522 1524 1525 1527 1528 1530 1531 1532 1533 1534 1534 1534 1535 1535 1535 1534 1533 1533 1531 1530 1528 1527 1525 1524 1522 1521 1520 1519 1518 1517 1516 1515 1513 1512 1510
1510 1514 1516 1515 1513 1516 1521 1521 1519 1520 1520 1520 1521 1522 1523 1524 1525 1526 1528 1529 1530 1531 1532 1533 1533 1534 1534 1533 1533 1532 1531 1530 1529 1527 1525 1523 1521 1520 1518 1517 1516 1515 1514 1514 1513 1512 1510 1509 1508
1509 1512 1514 1517 1517 1518 1521 1524 1522 1520 1520 1520 1521 1521 1522 1523 1524 1525 1527 1528 1529 1530 1531 1532 1532 1532 1532 1531 1531 1530 1528 1527 1526 1524 1522 1520 1518 1516 1514 1512 1511 1511 1510 1510 1509 1508 1507 1506 1506
1512 1505 1508 1513 1523 1531 1528 1536 1524 1521 1520 1519 1519 1520 1520 1522 1523 1524 1525 1526 1528 1529 1530 1530 1530 1530 1530 1529 1528 1527 1525 1524 1522 1520 1518 1516 1514 1512 1510 1509 1508 1507 1506 1505 1505 1505 1504 1503 1502
1508 1506 1510 1516 1525 1532 1532 1536 1530 1522 1520 1517 1516 1517 1518 1519 1520 1522 1523 1525 1526 1527 1528 1528 1528 1528 1527 1526 1525 1524 1522 1520 1518 1516 1514 1513 1511 1509 1507 1505 1504 1503 1502 1501 1501 1500 1500 1499 1499
1505 1511 1517 1525 1531 1541 1537 1539 1534 1523 1517 1514 1512 1513 1514 1516 1518 1519 1521 1522 1524 1525 1525 1525 1525 1525 1524 1523 1522 1520 1518 1516 1514 1512 1510 1509 1507 1505 1503 1501 1499 1498 1497 1497 1496 1496 1495 1495 1494
1507 1521 1538 1541 1549 1546 1538 1539 1533 1514 1511 1510 1510 1510 1511 1513 1515 1516 1518 1519 1520 1521 1522 1522 1522 1522 1521 1520 1518 1516 1514 1512 1510 1508 1506 1504 1502 1500 1499 1497 1495 1494 1493 1492 1491 1490 1490 1490 1489
1510 1517 1538 1546 1549 1545 1538 1539 1523 1509 1507 1507 1507 1508 1509 1511 1512 1514 1515 1517 1518 1519 1519 1519 1519 1518 1518 1516 1514 1513 1511 1509 1507 1505 1503 1500 1498 1496 1494 1492 1491 1489 1488 1487 1486 1485 1485 1484 1484
1510 1517 1520 1537 1542 1546 1541 1531 1516 1505 1505 1505 1505 1506 1507 1509 1510 1512 1513 1515 1516 1517 1517 1517 1516 1515 1514 1512 1511 1509 1507 1505 1503 1501 1499 1496 1494 1492 1490 1488 1486 1485 1483 1482 1481 1480 1479 1479 1478
1501 1512 1527 1538 1547 1547 1538 1533 1526 1509 1505 1503 1503 1504 1505 1507 1509 1510 1512 1513 1514 1515 1515 1514 1513 1512 1510 1509 1507 1505 1503 1501 1499 1496 1494 1492 1489 1487 1485 1483 1482 1480 1479 1477 1476 1474 1474 1473 1473
1506 1514 1525 1536 1537 1547 1548 1536 1507 1503 1500 1500 1500 1502 1504 1505 1507 1509 1511 1512 1512 1512 1512 1511 1510 1509 1507 1505 1503 1501 1499 1497 1495 1492 1490 1487 1485 1482 1480 1478 1477 1475 1473 1472 1470 1469 1468 1467 1467
1498 1505 1518 1528 1534 1540 1542 1531 1496 1496 1495 1496 1498 1500 1502 1504 1506 1508 1509 1510 1510 1510 1509 1508 1507 1505 1504 1502 1500 1498 1495 1493 1490 1488 1485 1482 1480 1478 1475 1473 1471 1469 1468 1466 1465 1463 1462 1461 1461